GW1718 Weather Reports


time (UTC)temp
F
wind
direction
speed
knots
gust
knots
rain 1hr
in
rain 24hr
in
rain mn
in
humidity
%
barometer
mb
20260504110555 59 148 2.6 3.5 0.00 0.00 0.00 85 1015.5
20260504110104 59 152 2.6 3.5 0.00 0.00 0.00 84 1015.5
20260504100554 60 150 4.3 7.0 0.00 0.00 0.00 81 1015.2
20260504100103 60 146 5.2 7.0 0.00 0.00 0.00 81 1015.1
20260504081556 61 147 5.2 7.8 0.00 0.00 0.00 79 1016.0
20260504081058 61 186 4.3 7.8 0.00 0.00 0.00 79 1016.1
20260504080557 61 157 5.2 7.8 0.00 0.00 0.00 79 1016.1
20260504050553 64 165 4.3 7.0 0.00 0.00 0.00 76 1018.2
20260504045554 64 164 6.1 7.8 0.00 0.00 0.00 75 1018.3
20260504045054 64 150 4.3 7.8 0.00 0.00 0.00 75 1018.4
20260504044554 64 158 5.2 7.8 0.00 0.00 0.00 75 1018.4
20260504044055 64 149 4.3 6.1 0.00 0.00 0.00 75 1018.5
20260504043555 64 160 4.3 7.8 0.00 0.00 0.00 75 1018.6
20260504043058 64 170 4.3 7.8 0.00 0.00 0.00 75 1018.7
20260504042559 64 172 5.2 7.0 0.00 0.00 0.00 75 1018.5
20260504042055 64 150 5.2 7.0 0.00 0.00 0.00 75 1018.4
20260504041553 64 153 4.3 7.8 0.00 0.00 0.00 74 1018.5
20260504041057 64 148 4.3 7.8 0.00 0.00 0.00 73 1018.6
20260504040555 64 175 5.2 6.1 0.00 0.00 0.00 73 1018.6
20260504040056 64 160 3.5 7.0 0.00 0.00 0.00 73 1018.5
20260504035555 65 175 4.3 7.0 0.00 0.00 0.00 73 1018.5
20260504035054 65 172 4.3 7.8 0.00 0.00 0.00 72 1018.6
20260504034552 65 166 5.2 7.8 0.00 0.00 0.00 72 1018.7
20260504034054 65 159 5.2 7.8 0.00 0.00 0.00 72 1018.6
20260504033554 65 182 6.1 8.7 0.00 0.00 0.00 72 1018.6
20260504033102 65 177 6.1 8.7 0.00 0.00 0.00 72 1018.6
20260504032552 65 172 5.2 7.8 0.00 0.00 0.00 72 1018.5
20260504032056 65 170 5.2 7.8 0.00 0.00 0.00 71 1018.4
20260504031604 65 168 5.2 7.8 0.00 0.00 0.00 72 1018.5
20260504031056 65 155 5.2 7.8 0.00 0.00 0.00 71 1018.4
20260504030558 66 159 5.2 7.0 0.00 0.00 0.00 71 1018.4
20260504030058 66 165 5.2 8.7 0.00 0.00 0.00 70 1018.6
20260504025555 66 156 6.1 8.7 0.00 0.00 0.00 69 1018.5
20260504025055 66 174 6.1 10.4 0.00 0.00 0.00 69 1018.5
20260504024554 67 154 6.1 10.4 0.00 0.00 0.00 69 1018.6
20260504024059 67 192 6.1 9.6 0.00 0.00 0.00 68 1018.4
20260504023552 67 172 7.0 9.6 0.00 0.00 0.00 69 1018.2
20260504023055 67 169 6.1 10.4 0.00 0.00 0.00 68 1018.1
20260504022555 67 160 6.1 10.4 0.00 0.00 0.00 68 1018.0
20260504022054 68 141 7.0 12.2 0.00 0.00 0.00 67 1017.9
20260504021558 68 165 7.8 12.2 0.00 0.00 0.00 67 1017.7
20260504021056 68 146 7.0 10.4 0.00 0.00 0.00 67 1017.7
20260504020556 68 146 7.8 10.4 0.00 0.00 0.00 67 1017.7
20260504020128 68 143 7.0 11.3 0.00 0.00 0.00 67 1017.6
20260504015556 69 132 7.8 12.2 0.00 0.00 0.00 66 1017.7
20260504015056 69 151 7.8 12.2 0.00 0.00 0.00 66 1017.6
20260504014607 69 160 7.8 12.2 0.00 0.00 0.00 66 1017.6
20260504014055 69 148 8.7 12.2 0.00 0.00 0.00 66 1017.7
20260504013555 70 129 8.7 12.2 0.00 0.00 0.00 66 1017.6
20260504013116 70 153 7.8 12.2 0.00 0.00 0.00 66 1017.5
20260504012555 70 151 8.7 12.2 0.00 0.00 0.00 66 1017.6
20260504012057 70 162 7.8 12.2 0.00 0.00 0.00 66 1017.5
20260504011554 70 159 7.8 12.2 0.00 0.00 0.00 65 1017.4
20260504011055 71 160 6.1 9.6 0.00 0.00 0.00 66 1017.4
20260504010555 71 136 7.0 11.3 0.00 0.00 0.00 65 1017.4
20260504010057 72 148 7.8 11.3 0.00 0.00 0.00 63 1017.4
20260504005552 72 161 7.8 11.3 0.00 0.00 0.00 60 1017.5
20260504005056 72 162 7.8 11.3 0.00 0.00 0.00 56 1017.6
20260504004635 72 146 3.5 4.3 0.00 0.00 0.00 54 1017.6
20260504004056 73 131 3.5 4.3 0.00 0.00 0.00 51 1017.4
20260504003555 73 144 2.6 4.3 0.00 0.00 0.00 50 1017.5
20260504003100 74 130 3.5 4.3 0.00 0.00 0.00 49 1017.6
20260504002555 74 131 3.5 4.3 0.00 0.00 0.00 48 1017.6
20260504002055 75 134 2.6 7.0 0.00 0.00 0.00 48 1017.6
20260504001621 75 138 3.5 7.0 0.00 0.00 0.00 46 1017.6
20260504001055 75 130 5.2 7.0 0.00 0.00 0.00 43 1017.6
20260504000555 76 129 4.3 7.0 0.00 0.00 0.00 45 1017.6
20260504000113 76 146 5.2 7.0 0.00 0.00 0.00 45 1017.7
20260503235559 76 155 3.5 7.8 0.00 0.00 0.00 46 1017.8
20260503235055 76 135 5.2 7.8 0.00 0.00 0.00 44 1017.9
20260503234604 76 150 5.2 7.8 0.00 0.00 0.00 42 1017.9
20260503234056 76 142 4.3 7.0 0.00 0.00 0.00 46 1017.9
20260503233552 76 136 4.3 6.1 0.00 0.00 0.00 42 1017.8
20260503233101 77 127 4.3 7.0 0.00 0.00 0.00 43 1017.7
20260503232556 76 136 5.2 7.8 0.00 0.00 0.00 43 1017.7
20260503232056 76 137 6.1 7.8 0.00 0.00 0.00 41 1017.7
20260503231555 77 146 6.1 7.8 0.00 0.00 0.00 43 1017.9
20260503231056 77 134 4.3 7.8 0.00 0.00 0.00 41 1017.9
20260503230556 77 141 6.1 7.8 0.00 0.00 0.00 41 1018.1
20260503230111 77 129 4.3 9.6 0.00 0.00 0.00 42 1018.2
20260503225555 78 127 3.5 9.6 0.00 0.00 0.00 41 1018.1
20260503225055 78 170 6.1 9.6 0.00 0.00 0.00 39 1018.1
20260503224604 78 160 4.3 10.4 0.00 0.00 0.00 42 1018.1
20260503224055 77 137 6.1 10.4 0.00 0.00 0.00 41 1018.2
20260503223556 77 143 7.8 10.4 0.00 0.00 0.00 41 1018.3
20260503223054 78 117 7.0 10.4 0.00 0.00 0.00 40 1018.4
20260503222556 78 153 5.2 9.6 0.00 0.00 0.00 42 1018.5
20260503222055 78 172 4.3 8.7 0.00 0.00 0.00 40 1018.6
20260503221602 78 196 6.1 10.4 0.00 0.00 0.00 37 1018.6
20260503221056 78 211 2.6 11.3 0.00 0.00 0.00 38 1018.6
20260503220556 78 193 6.1 11.3 0.00 0.00 0.00 39 1018.6
20260503220058 78 129 6.1 11.3 0.00 0.00 0.00 43 1018.7
20260503215556 78 157 8.7 11.3 0.00 0.00 0.00 42 1018.9
20260503215055 78 179 6.1 11.3 0.00 0.00 0.00 39 1018.8
20260503214602 77 143 7.0 13.9 0.00 0.00 0.00 44 1019.1
20260503214059 78 145 7.8 13.9 0.00 0.00 0.00 46 1019.1
20260503213557 78 126 7.0 11.3 0.00 0.00 0.00 45 1019.0
20260503213100 77 162 7.0 12.2 0.00 0.00 0.00 44 1019.2
20260503212555 77 101 7.8 12.2 0.00 0.00 0.00 44 1019.3
20260503212055 77 171 7.0 10.4 0.00 0.00 0.00 46 1019.4
20260503211558 77 148 7.0 10.4 0.00 0.00 0.00 44 1019.4
20260503211056 77 125 5.2 9.6 0.00 0.00 0.00 47 1019.5
20260503210558 77 125 3.5 11.3 0.00 0.00 0.00 44 1019.7
20260503210058 77 150 5.2 11.3 0.00 0.00 0.00 44 1019.7
20260503205556 77 138 5.2 9.6 0.00 0.00 0.00 46 1019.8
20260503205056 77 112 5.2 9.6 0.00 0.00 0.00 40 1019.8
20260503204600 77 122 6.1 9.6 0.00 0.00 0.00 45 1019.9
20260503204055 77 113 4.3 10.4 0.00 0.00 0.00 44 1020.0
20260503203555 77 78 3.5 12.2 0.00 0.00 0.00 41 1020.0
20260503203113 77 151 6.1 12.2 0.00 0.00 0.00 45 1020.3
20260503202555 78 150 7.8 12.2 0.00 0.00 0.00 46 1020.4
20260503202056 78 143 6.1 10.4 0.00 0.00 0.00 46 1020.4
20260503201556 78 117 6.1 9.6 0.00 0.00 0.00 41 1020.5
20260503201055 77 173 5.2 9.6 0.00 0.00 0.00 42 1020.6
20260503200555 78 117 6.1 10.4 0.00 0.00 0.00 44 1020.6
20260503200105 78 114 7.0 11.3 0.00 0.00 0.00 44 1020.6
20260503195554 78 193 6.1 11.3 0.00 0.00 0.00 43 1020.6
20260503195055 78 136 5.2 9.6 0.00 0.00 0.00 50 1020.6
20260503194557 77 147 7.0 9.6 0.00 0.00 0.00 45 1020.7
20260503194057 77 120 2.6 12.2 0.00 0.00 0.00 43 1020.7
20260503193556 77 134 7.0 12.2 0.00 0.00 0.00 43 1020.9
20260503193055 77 154 4.3 11.3 0.00 0.00 0.00 45 1021.0
20260503192556 77 120 4.3 11.3 0.00 0.00 0.00 41 1021.1
20260503192055 76 126 6.1 11.3 0.00 0.00 0.00 46 1021.1
20260503191556 76 122 3.5 10.4 0.00 0.00 0.00 46 1021.2
20260503191055 76 93 5.2 12.2 0.00 0.00 0.00 43 1021.2
20260503190555 76 139 6.1 12.2 0.00 0.00 0.00 44 1021.4
20260503190106 77 141 6.1 12.2 0.00 0.00 0.00 43 1021.3
20260503185556 77 156 4.3 10.4 0.00 0.00 0.00 44 1021.4
20260503185055 76 110 5.2 10.4 0.00 0.00 0.00 49 1021.4
20260503184602 77 151 7.0 9.6 0.00 0.00 0.00 47 1021.6
20260503184057 77 145 6.1 11.3 0.00 0.00 0.00 44 1021.7
20260503183551 77 165 6.1 13.9 0.00 0.00 0.00 47 1021.7
20260503183056 77 171 8.7 13.9 0.00 0.00 0.00 48 1021.8
20260503182555 77 210 3.5 9.6 0.00 0.00 0.00 46 1022.0
20260503182055 76 157 6.1 9.6 0.00 0.00 0.00 46 1022.0
20260503181600 76 115 6.1 9.6 0.00 0.00 0.00 48 1022.1
20260503181056 76 146 6.1 11.3 0.00 0.00 0.00 45 1022.1
20260503180555 76 193 3.5 11.3 0.00 0.00 0.00 48 1022.1
20260503180058 76 192 5.2 11.3 0.00 0.00 0.00 50 1022.3
20260503175555 75 150 5.2 7.8 0.00 0.00 0.00 49 1022.4
20260503175055 75 131 4.3 8.7 0.00 0.00 0.00 50 1022.5
20260503174554 75 131 4.3 8.7 0.00 0.00 0.00 47 1022.7
20260503174055 75 163 3.5 10.4 0.00 0.00 0.00 45 1022.8
20260503173556 75 166 5.2 10.4 0.00 0.00 0.00 46 1022.9
20260503173100 75 157 6.1 10.4 0.00 0.00 0.00 48 1023.0
20260503172555 75 210 4.3 9.6 0.00 0.00 0.00 49 1023.1
20260503172054 75 110 3.5 10.4 0.00 0.00 0.00 45 1023.2
20260503171600 75 137 5.2 10.4 0.00 0.00 0.00 47 1023.2
20260503171057 75 112 4.3 8.7 0.00 0.00 0.00 46 1023.4
20260503170556 75 162 6.1 8.7 0.00 0.00 0.00 47 1023.4
20260503150555 71 205 5.2 7.8 0.00 0.00 0.00 65 1023.4
20260503131055 62 0 0.0 0.0 0.00 0.00 0.00 81 1023.0
20260503130555 62 0 0.0 0.0 0.00 0.00 0.00 81 1022.8